Home   Weather   Cuxhaven   Past weeks

Flag for Germany Past Weather in Cuxhaven, Lower Saxony, Germany — Yesterday and Last 2 Weeks

Now
36 °F

Drizzle. Fog.


Feels Like: 33 °F
Forecast: 31 / 37 °F
Wind: 3 mph from Southwest

Location: Nordholz

Current Time: Jan 20, 2017 at 2:58:10 pm

Latest Report: Jan 20, 2017 at 2:20 pm


Visibility: 0 mi

Pressure: 30.57 "Hg

Humidity: 100%

Dew Point: 36 °F

Location of CuxhavenLocation

Past Weather in Cuxhaven — Graph

°F

Cuxhaven Temperature Yesterday

Maximum temperature yesterday: 36 °F (at 2:20 pm)
Minimum temperature yesterday: 27 °F (at 1:20 am)
Average temperature yesterday: 31 °F

High & Low Weather Summary for the Past Weeks

 TemperatureHumidityPressure
High45 °F (Jan 11, 1:20 pm)100% (Jan 7, 1:20 pm)30.77 "Hg (Jan 7, 1:20 pm)
Low16 °F (Jan 6, 4:20 am)59% (Jan 6, 3:20 pm)29.12 "Hg (Jan 13, 3:20 am)
Average33 °F87%30.12 "Hg
* Reported Jan 5 1:20 pm — Jan 20 1:20 pm, Cuxhaven, Weather by CustomWeather, © 2017

Note: Actual official high and low records may vary slightly from our data, if they occured in-between our weather recording intervals... More about our weather records

Advertising

Cuxhaven Weather History for the Previous 24 Hours

Scroll right to see more
 ConditionsComfort  
Time TempWeatherWind HumidityBarometerVisibility
1:20 pm
Fri, Jan 20
36 °FDrizzle. Fog.6 mph93%30.57 "Hg1 mi
12:20 pm36 °FDrizzle. Fog.5 mph93%30.60 "Hg1 mi
11:20 am34 °FDrizzle. Fog.5 mph100%30.60 "Hg1 mi
10:56 am34 °FDrizzle. Fog.5 mph93%30.60 "Hg1 mi
10:32 am34 °FDrizzle. Fog.5 mph93%30.60 "Hg1 mi
9:20 am34 °FFog.5 mph93%30.60 "Hg1 mi
8:35 am34 °FFog.6 mph93%30.60 "Hg1 mi
7:20 am32 °FIce fog.5 mph100%30.60 "Hg2 mi
6:20 am32 °FDrizzle. Ice fog.6 mph93%30.60 "Hg2 mi
5:20 am32 °FDrizzle. Ice fog.5 mph93%30.60 "Hg2 mi
4:50 am32 °FDrizzle. Ice fog.6 mph93%30.60 "Hg2 mi
4:20 am32 °FDrizzle. Ice fog.6 mph87%30.60 "Hg3 mi
3:50 am32 °FPassing clouds.6 mph87%30.60 "Hg4 mi
3:20 am32 °FPassing clouds.7 mph87%30.60 "Hg5 mi
2:20 am32 °FPassing clouds.6 mph80%30.63 "Hg6 mi
1:20 am32 °FPassing clouds.7 mph80%30.63 "HgN/A
12:20 am32 °FPassing clouds.8 mph80%30.63 "HgN/A
11:20 pm
Thu, Jan 19
32 °FPassing clouds.9 mph80%30.63 "HgN/A
10:20 pm32 °FPassing clouds.8 mph80%30.63 "HgN/A
9:20 pm32 °FPassing clouds.10 mph80%30.63 "HgN/A
8:50 pm32 °FPassing clouds.8 mph80%30.63 "HgN/A
8:20 pm32 °FPassing clouds.6 mph80%30.63 "HgN/A
7:20 pm32 °FPassing clouds.8 mph80%30.63 "HgN/A
6:20 pm32 °FPartly cloudy.7 mph87%30.63 "HgN/A
5:31 pm32 °FPassing clouds.7 mph80%30.63 "Hg6 mi
4:20 pm34 °FBroken clouds.7 mph81%30.63 "Hg4 mi
3:20 pm34 °FBroken clouds.8 mph75%30.63 "HgN/A
2:20 pm36 °FPartly sunny.8 mph70%30.63 "HgN/A
Weather by CustomWeather, © 2017

See weather overviewHow to use our weather pages